Location: Kawakawa
(35.3830°S, 174.0670°E)
Time: 07:49:01
(UTC+13:00)

Explorer 7 - Pass Details

Date: 18 December 2019
Orbit: 485 x 679 km, 50.3° (Epoch: 26 January)

Event Time Altitude Azimuth Distance (km) Brightness Sun altitude
Rises 10:16:17 0° 246° (WSW) 2,586 9.9 48.6°
Reaches altitude 10° 10:18:55 10° 265° (W) 1,713 9.1 49.2°
Maximum altitude 10:21:41 19° 310° (NW) 1,274 8.6 49.7°
Drops below altitude 10° 10:24:29 10° 356° (N) 1,753 9.5 50.3°
Sets 10:27:14 0° 14° (NNE) 2,670 10.5 50.9°
